| time (UTC) | temp C | wind direction | speed KPH | gust KPH | rain 1hr cm | rain 24hr cm | rain mn cm | humidity % | barometer mb |
| 20260504150927 | 17 | 198 | 1.6 | 14.5 | 0.00 | 0.00 | 0.00 | 32 | 1005.7 |
| 20260504150428 | 17 | 157 | 1.6 | 6.4 | 0.00 | 0.00 | 0.00 | 32 | 1005.7 |
| 20260504140928 | 14 | 223 | 0.0 | 0.0 | 0.00 | 0.00 | 0.00 | 42 | 1006.5 |
| 20260504140425 | 13 | 241 | 0.0 | 0.0 | 0.00 | 0.00 | 0.00 | 41 | 1006.4 |
| 20260504130423 | 10 | 205 | 0.0 | 0.0 | 0.00 | 0.00 | 0.00 | 50 | 1007.3 |
| 20260504110228 | 7 | 209 | 0.0 | 0.0 | 0.00 | 0.00 | 0.00 | 54 | 1007.6 |
| 20260504100116 | 3 | 234 | 0.0 | 0.0 | 0.00 | 0.00 | 0.00 | 59 | 1007.5 |
| 20260504081916 | 2 | 229 | 0.0 | 0.0 | 0.00 | 0.00 | 0.00 | 58 | 1007.8 |
| 20260504081631 | 2 | 229 | 0.0 | 0.0 | 0.00 | 0.00 | 0.00 | 58 | 1007.8 |
| 20260504080903 | 2 | 229 | 0.0 | 0.0 | 0.00 | 0.00 | 0.00 | 58 | 1007.8 |
| 20260504080358 | 2 | 229 | 0.0 | 0.0 | 0.00 | 0.00 | 0.00 | 59 | 1007.8 |
| 20260504070245 | 1 | 225 | 0.0 | 0.0 | 0.00 | 0.00 | 0.00 | 61 | 1007.8 |
| 20260504060134 | 0 | 187 | 0.0 | 0.0 | 0.00 | 0.00 | 0.00 | 65 | 1007.4 |
| 20260504050558 | 0 | 197 | 0.0 | 0.0 | 0.00 | 0.00 | 0.00 | 66 | 1007.4 |
| 20260504045557 | 1 | 197 | 0.0 | 0.0 | 0.00 | 0.00 | 0.00 | 65 | 1007.4 |
| 20260504045316 | 1 | 197 | 0.0 | 0.0 | 0.00 | 0.00 | 0.00 | 65 | 1007.3 |
| 20260504044826 | 1 | 197 | 0.0 | 0.0 | 0.00 | 0.00 | 0.00 | 65 | 1007.3 |
| 20260504044054 | 1 | 197 | 0.0 | 0.0 | 0.00 | 0.00 | 0.00 | 64 | 1007.3 |
| 20260504043553 | 1 | 197 | 0.0 | 0.0 | 0.00 | 0.00 | 0.00 | 64 | 1007.3 |
| 20260504043052 | 1 | 197 | 0.0 | 0.0 | 0.00 | 0.00 | 0.00 | 64 | 1007.3 |
| 20260504042552 | 1 | 197 | 0.0 | 0.0 | 0.00 | 0.00 | 0.00 | 64 | 1007.3 |
| 20260504042054 | 1 | 197 | 0.0 | 0.0 | 0.00 | 0.00 | 0.00 | 63 | 1007.4 |
| 20260504041554 | 1 | 197 | 0.0 | 0.0 | 0.00 | 0.00 | 0.00 | 63 | 1007.3 |
| 20260504041054 | 1 | 197 | 0.0 | 0.0 | 0.00 | 0.00 | 0.00 | 63 | 1007.4 |
| 20260504040553 | 1 | 197 | 0.0 | 0.0 | 0.00 | 0.00 | 0.00 | 63 | 1007.3 |
| 20260504040053 | 1 | 249 | 0.0 | 0.0 | 0.00 | 0.00 | 0.00 | 63 | 1007.3 |
| 20260504035548 | 1 | 249 | 0.0 | 0.0 | 0.00 | 0.00 | 0.00 | 62 | 1007.3 |
| 20260504035304 | 2 | 249 | 0.0 | 0.0 | 0.00 | 0.00 | 0.00 | 62 | 1007.4 |
| 20260504034536 | 2 | 249 | 0.0 | 0.0 | 0.00 | 0.00 | 0.00 | 61 | 1007.2 |
| 20260504034030 | 2 | 249 | 0.0 | 0.0 | 0.00 | 0.00 | 0.00 | 61 | 1007.3 |
| 20260504033749 | 2 | 249 | 0.0 | 0.0 | 0.00 | 0.00 | 0.00 | 61 | 1007.2 |
| 20260504033021 | 2 | 249 | 0.0 | 0.0 | 0.00 | 0.00 | 0.00 | 62 | 1007.1 |
| 20260504032739 | 2 | 249 | 0.0 | 0.0 | 0.00 | 0.00 | 0.00 | 62 | 1007.1 |
| 20260504032020 | 2 | 249 | 0.0 | 0.0 | 0.00 | 0.00 | 0.00 | 62 | 1007.1 |
| 20260504031519 | 2 | 249 | 0.0 | 0.0 | 0.00 | 0.00 | 0.00 | 62 | 1007.1 |
| 20260504031016 | 2 | 249 | 0.0 | 0.0 | 0.00 | 0.00 | 0.00 | 62 | 1007.1 |
| 20260504030513 | 1 | 249 | 0.0 | 0.0 | 0.00 | 0.00 | 0.00 | 62 | 1007.1 |
| 20260504030010 | 1 | 249 | 0.0 | 0.0 | 0.00 | 0.00 | 0.00 | 63 | 1007.2 |
| 20260504025512 | 1 | 249 | 0.0 | 0.0 | 0.00 | 0.03 | 0.00 | 64 | 1007.1 |
| 20260504025012 | 1 | 249 | 0.0 | 0.0 | 0.00 | 0.03 | 0.00 | 64 | 1007.1 |
| 20260504024511 | 1 | 249 | 0.0 | 0.0 | 0.00 | 0.03 | 0.00 | 63 | 1007.1 |
| 20260504024229 | 1 | 249 | 0.0 | 0.0 | 0.00 | 0.03 | 0.00 | 64 | 1007.1 |
| 20260504023511 | 1 | 249 | 0.0 | 0.0 | 0.00 | 0.03 | 0.00 | 64 | 1007.2 |
| 20260504023012 | 1 | 249 | 0.0 | 0.0 | 0.00 | 0.03 | 0.00 | 64 | 1007.2 |
| 20260504022731 | 2 | 249 | 0.0 | 0.0 | 0.00 | 0.03 | 0.00 | 63 | 1007.2 |
| 20260504022006 | 2 | 249 | 0.0 | 0.0 | 0.00 | 0.03 | 0.00 | 62 | 1007.3 |
| 20260504021506 | 2 | 249 | 0.0 | 0.0 | 0.00 | 0.03 | 0.00 | 62 | 1007.2 |
| 20260504021007 | 2 | 249 | 0.0 | 0.0 | 0.00 | 0.03 | 0.00 | 61 | 1007.1 |
| 20260504020508 | 2 | 249 | 0.0 | 0.0 | 0.00 | 0.03 | 0.00 | 61 | 1007.2 |
| 20260504020008 | 2 | 249 | 0.0 | 0.0 | 0.00 | 0.03 | 0.00 | 61 | 1007.1 |
| 20260504015508 | 3 | 249 | 0.0 | 0.0 | 0.00 | 0.03 | 0.00 | 60 | 1007.2 |
| 20260504015228 | 3 | 249 | 0.0 | 0.0 | 0.00 | 0.03 | 0.00 | 60 | 1007.1 |
| 20260504014734 | 3 | 249 | 0.0 | 0.0 | 0.00 | 0.03 | 0.00 | 59 | 1007.1 |
| 20260504014008 | 3 | 249 | 0.0 | 0.0 | 0.00 | 0.03 | 0.00 | 58 | 1007.0 |
| 20260504013506 | 3 | 249 | 0.0 | 0.0 | 0.00 | 0.03 | 0.00 | 57 | 1006.9 |
| 20260504013007 | 3 | 249 | 0.0 | 0.0 | 0.00 | 0.03 | 0.00 | 57 | 1006.8 |
| 20260504012506 | 4 | 249 | 0.0 | 0.0 | 0.00 | 0.03 | 0.00 | 57 | 1006.8 |
| 20260504012006 | 4 | 249 | 0.0 | 0.0 | 0.00 | 0.05 | 0.00 | 55 | 1006.8 |
| 20260504011508 | 5 | 249 | 0.0 | 0.0 | 0.00 | 0.05 | 0.00 | 54 | 1006.8 |
| 20260504011006 | 5 | 249 | 0.0 | 0.0 | 0.00 | 0.05 | 0.00 | 53 | 1006.8 |
| 20260504010506 | 5 | 249 | 0.0 | 0.0 | 0.00 | 0.05 | 0.00 | 51 | 1006.8 |
| 20260504010005 | 5 | 249 | 0.0 | 0.0 | 0.00 | 0.08 | 0.00 | 50 | 1006.7 |
| 20260504005459 | 6 | 249 | 0.0 | 0.0 | 0.00 | 0.08 | 0.00 | 49 | 1006.8 |
| 20260504004953 | 6 | 249 | 0.0 | 0.0 | 0.00 | 0.08 | 0.00 | 46 | 1006.7 |
| 20260504004448 | 6 | 249 | 0.0 | 0.0 | 0.00 | 0.08 | 0.00 | 46 | 1006.5 |
| 20260504003941 | 6 | 249 | 0.0 | 0.0 | 0.00 | 0.08 | 0.00 | 45 | 1006.5 |
| 20260504003435 | 6 | 249 | 0.0 | 0.0 | 0.00 | 0.08 | 0.00 | 45 | 1006.4 |
| 20260504002929 | 6 | 249 | 0.0 | 0.0 | 0.00 | 0.10 | 0.00 | 43 | 1006.3 |
| 20260504002423 | 7 | 249 | 0.0 | 0.0 | 0.00 | 0.10 | 0.00 | 45 | 1006.3 |
| 20260504001917 | 7 | 249 | 0.0 | 0.0 | 0.00 | 0.10 | 0.00 | 44 | 1006.2 |
| 20260504001410 | 7 | 249 | 0.0 | 1.6 | 0.00 | 0.10 | 0.00 | 43 | 1006.1 |
| 20260504001121 | 7 | 153 | 0.0 | 1.6 | 0.00 | 0.10 | 0.00 | 41 | 1006.1 |
| 20260504000357 | 7 | 238 | 0.0 | 0.0 | 0.00 | 0.10 | 0.00 | 42 | 1006.0 |
| 20260503235851 | 7 | 238 | 0.0 | 0.0 | 0.00 | 0.10 | 0.00 | 42 | 1006.0 |
| 20260503235345 | 7 | 238 | 0.0 | 0.0 | 0.00 | 0.10 | 0.00 | 42 | 1006.0 |
| 20260503234838 | 7 | 261 | 0.0 | 0.0 | 0.00 | 0.10 | 0.00 | 40 | 1005.9 |
| 20260503234605 | 7 | 253 | 0.0 | 0.0 | 0.00 | 0.10 | 0.00 | 40 | 1005.8 |
| 20260503233827 | 8 | 250 | 0.0 | 0.0 | 0.00 | 0.10 | 0.00 | 39 | 1005.7 |
| 20260503233321 | 8 | 272 | 0.0 | 0.0 | 0.00 | 0.10 | 0.00 | 38 | 1005.6 |
| 20260503232815 | 8 | 261 | 0.0 | 0.0 | 0.00 | 0.10 | 0.00 | 37 | 1005.6 |
| 20260503232309 | 8 | 336 | 0.0 | 0.0 | 0.00 | 0.10 | 0.00 | 36 | 1005.5 |
| 20260503231803 | 8 | 279 | 0.0 | 0.0 | 0.00 | 0.13 | 0.00 | 36 | 1005.3 |
| 20260503231257 | 8 | 264 | 0.0 | 0.0 | 0.00 | 0.13 | 0.00 | 37 | 1005.3 |
| 20260503230751 | 8 | 267 | 0.0 | 0.0 | 0.00 | 0.13 | 0.00 | 37 | 1005.2 |
| 20260503230245 | 9 | 267 | 0.0 | 0.0 | 0.00 | 0.13 | 0.00 | 37 | 1005.2 |
| 20260503225739 | 9 | 272 | 0.0 | 0.0 | 0.00 | 0.13 | 0.00 | 37 | 1005.0 |
| 20260503225233 | 9 | 261 | 0.0 | 0.0 | 0.00 | 0.13 | 0.00 | 37 | 1004.9 |
| 20260503224726 | 9 | 278 | 0.0 | 0.0 | 0.00 | 0.13 | 0.00 | 36 | 1004.9 |
| 20260503224220 | 9 | 283 | 0.0 | 0.0 | 0.00 | 0.13 | 0.00 | 36 | 1004.8 |
| 20260503223936 | 10 | 316 | 0.0 | 0.0 | 0.00 | 0.13 | 0.00 | 36 | 1004.7 |
| 20260503223432 | 10 | 296 | 0.0 | 0.0 | 0.00 | 0.13 | 0.00 | 35 | 1004.6 |
| 20260503222704 | 10 | 231 | 0.0 | 0.0 | 0.00 | 0.15 | 0.00 | 34 | 1004.6 |
| 20260503222428 | 10 | 329 | 0.0 | 0.0 | 0.00 | 0.15 | 0.00 | 35 | 1004.5 |
| 20260503221916 | 10 | 267 | 0.0 | 0.0 | 0.00 | 0.15 | 0.00 | 35 | 1004.6 |
| 20260503221405 | 10 | 302 | 0.0 | 0.0 | 0.00 | 0.18 | 0.00 | 36 | 1004.6 |
| 20260503220639 | 10 | 245 | 0.0 | 0.0 | 0.00 | 0.18 | 0.00 | 35 | 1004.5 |
| 20260503220133 | 10 | 288 | 0.0 | 0.0 | 0.00 | 0.18 | 0.00 | 34 | 1004.2 |
| 20260503215627 | 10 | 324 | 0.0 | 0.0 | 0.00 | 0.18 | 0.00 | 34 | 1004.3 |
| 20260503215341 | 10 | 309 | 0.0 | 0.0 | 0.00 | 0.20 | 0.00 | 35 | 1004.3 |
| 20260503214615 | 10 | 319 | 0.0 | 0.0 | 0.00 | 0.20 | 0.00 | 35 | 1004.3 |
| 20260503214109 | 10 | 301 | 0.0 | 0.0 | 0.00 | 0.20 | 0.00 | 34 | 1004.2 |
| 20260503213603 | 10 | 290 | 0.0 | 0.0 | 0.00 | 0.20 | 0.00 | 36 | 1004.2 |
| 20260503213057 | 10 | 288 | 0.0 | 0.0 | 0.00 | 0.20 | 0.00 | 37 | 1004.2 |
| 20260503212551 | 10 | 303 | 0.0 | 0.0 | 0.00 | 0.20 | 0.00 | 39 | 1004.1 |
| 20260503212045 | 10 | 32 | 0.0 | 0.0 | 0.00 | 0.20 | 0.00 | 40 | 1004.1 |
| 20260503211539 | 10 | 318 | 0.0 | 0.0 | 0.00 | 0.23 | 0.00 | 41 | 1004.1 |
| 20260503211250 | 10 | 10 | 0.0 | 0.0 | 0.00 | 0.23 | 0.00 | 39 | 1004.0 |
| 20260503210751 | 10 | 319 | 0.0 | 0.0 | 0.00 | 0.23 | 0.00 | 40 | 1003.8 |
| 20260503210021 | 10 | 320 | 0.0 | 0.0 | 0.00 | 0.23 | 0.00 | 40 | 1003.8 |
| 20260503205511 | 10 | 298 | 0.0 | 0.0 | 0.00 | 0.25 | 0.00 | 38 | 1003.8 |
| 20260503205006 | 10 | 194 | 0.0 | 0.0 | 0.00 | 0.25 | 0.00 | 39 | 1003.8 |
| 20260503204459 | 10 | 329 | 0.0 | 0.0 | 0.00 | 0.28 | 0.00 | 40 | 1003.8 |
| 20260503203953 | 10 | 49 | 0.0 | 0.0 | 0.00 | 0.30 | 0.00 | 38 | 1003.7 |
| 20260503203446 | 10 | 291 | 0.0 | 0.0 | 0.00 | 0.30 | 0.00 | 39 | 1003.7 |
| 20260503203159 | 10 | 319 | 0.0 | 0.0 | 0.00 | 0.33 | 0.00 | 39 | 1003.8 |
| 20260503202436 | 10 | 304 | 0.0 | 0.0 | 0.00 | 0.36 | 0.00 | 39 | 1003.8 |
| 20260503201929 | 11 | 332 | 0.0 | 0.0 | 0.00 | 0.36 | 0.00 | 39 | 1003.8 |
| 20260503201423 | 11 | 302 | 0.0 | 0.0 | 0.00 | 0.36 | 0.00 | 38 | 1003.9 |
| 20260503201135 | 11 | 294 | 0.0 | 0.0 | 0.00 | 0.36 | 0.00 | 39 | 1003.8 |
| 20260503200412 | 11 | 23 | 0.0 | 0.0 | 0.00 | 0.38 | 0.00 | 37 | 1003.7 |
| 20260503195905 | 11 | 331 | 0.0 | 0.0 | 0.00 | 0.38 | 0.00 | 38 | 1003.8 |
| 20260503195359 | 11 | 338 | 0.0 | 0.0 | 0.00 | 0.38 | 0.00 | 37 | 1003.8 |
| 20260503194852 | 11 | 263 | 0.0 | 0.0 | 0.00 | 0.38 | 0.00 | 36 | 1003.8 |
| 20260503194347 | 11 | 295 | 0.0 | 0.0 | 0.00 | 0.38 | 0.00 | 40 | 1003.8 |
| 20260503193842 | 11 | 319 | 0.0 | 0.0 | 0.00 | 0.38 | 0.00 | 38 | 1003.9 |
| 20260503193555 | 11 | 222 | 0.0 | 0.0 | 0.00 | 0.38 | 0.00 | 40 | 1003.9 |
| 20260503192829 | 11 | 284 | 0.0 | 0.0 | 0.00 | 0.38 | 0.00 | 37 | 1004.0 |
| 20260503192815 | 11 | 333 | 0.0 | 0.0 | 0.00 | 0.38 | 0.00 | 37 | 1004.0 |
| 20260503191817 | 11 | 317 | 0.0 | 0.0 | 0.00 | 0.38 | 0.00 | 37 | 1004.1 |
| 20260503191310 | 11 | 309 | 0.0 | 0.0 | 0.00 | 0.41 | 0.00 | 38 | 1004.2 |
| 20260503190805 | 11 | 350 | 0.0 | 0.0 | 0.00 | 0.41 | 0.00 | 39 | 1004.1 |
| 20260503190259 | 11 | 351 | 0.0 | 0.0 | 0.00 | 0.41 | 0.00 | 41 | 1004.1 |
| 20260503185753 | 11 | 0 | 0.0 | 0.0 | 0.00 | 0.41 | 0.00 | 41 | 1004.2 |
| 20260503185247 | 11 | 349 | 0.0 | 0.0 | 0.00 | 0.41 | 0.00 | 42 | 1004.2 |
| 20260503184741 | 11 | 9 | 0.0 | 0.0 | 0.00 | 0.41 | 0.00 | 40 | 1004.1 |
| 20260503184234 | 11 | 323 | 0.0 | 0.0 | 0.00 | 0.41 | 0.00 | 42 | 1004.1 |
| 20260503183956 | 11 | 323 | 0.0 | 0.0 | 0.00 | 0.41 | 0.00 | 42 | 1004.1 |
| 20260503183223 | 11 | 304 | 0.0 | 0.0 | 0.00 | 0.41 | 0.00 | 41 | 1004.1 |
| 20260503182717 | 11 | 264 | 0.0 | 0.0 | 0.00 | 0.41 | 0.00 | 41 | 1004.1 |
| 20260503182211 | 11 | 344 | 0.0 | 0.0 | 0.00 | 0.41 | 0.00 | 40 | 1004.0 |
| 20260503181705 | 11 | 284 | 0.0 | 0.0 | 0.00 | 0.41 | 0.00 | 43 | 1004.1 |
| 20260503181159 | 10 | 321 | 0.0 | 0.0 | 0.00 | 0.41 | 0.00 | 42 | 1004.1 |
| 20260503180653 | 10 | 266 | 0.0 | 0.0 | 0.00 | 0.41 | 0.00 | 42 | 1004.0 |
| 20260503180632 | 10 | 332 | 0.0 | 0.0 | 0.00 | 0.41 | 0.00 | 46 | 1004.0 |
| 20260503175905 | 10 | 337 | 0.0 | 0.0 | 0.00 | 0.41 | 0.00 | 45 | 1004.0 |
| 20260503175135 | 10 | 269 | 0.0 | 0.0 | 0.00 | 0.41 | 0.00 | 47 | 1004.1 |
| 20260503174628 | 10 | 142 | 0.0 | 0.0 | 0.00 | 0.41 | 0.00 | 45 | 1004.1 |
| 20260503174123 | 10 | 289 | 0.0 | 0.0 | 0.00 | 0.41 | 0.00 | 46 | 1004.0 |
| 20260503173617 | 10 | 298 | 0.0 | 0.0 | 0.00 | 0.41 | 0.00 | 49 | 1004.0 |
| 20260503173111 | 10 | 267 | 0.0 | 0.0 | 0.00 | 0.41 | 0.00 | 54 | 1004.0 |
| 20260503172605 | 10 | 5 | 0.0 | 0.0 | 0.00 | 0.41 | 0.00 | 53 | 1004.1 |
| 20260503172059 | 9 | 327 | 0.0 | 0.0 | 0.00 | 0.41 | 0.00 | 54 | 1004.1 |
| 20260503171552 | 9 | 60 | 0.0 | 0.0 | 0.00 | 0.41 | 0.00 | 55 | 1004.1 |
| 20260503171318 | 9 | 355 | 0.0 | 0.0 | 0.00 | 0.41 | 0.00 | 54 | 1004.2 |
| 20260503170549 | 9 | 297 | 0.0 | 0.0 | 0.00 | 0.41 | 0.00 | 55 | 1004.2 |